Regional Weather Roundup
Issued by NWS

Home | Current Version | Previous Version | Text Only | Print | Product List | Glossary Off
Versions: 1 2 3 4 5 6 7 8 9 10 11 12 13 14 15 16 17 18 19 20 21 22 23 24 25 26 27 28 29 30 31 32 33 34 35 36 37 38 39 40 41 42 43 44 45 46 47 48 49 50

000
ASUS45 KABQ 280101
RWRNM
NEW MEXICO REGIONAL WEATHER ROUNDUP
NATIONAL WEATHER SERVICE ALBUQUERQUE NM
700 PM MDT MON JUL 27 2015

NOTE: "FAIR" MEANS FEW OR NO CLOUDS BELOW 12,000 FEET AGL WITH NO
       SIGNIFICANT WEATHER OR OBSTRUCTIONS TO VISION.

      THIS PRODUCT IS RELEASED AS TWO VERSIONS.  ONE VERSION NEAR
      THE TOP OF THE HOUR CONTAINING PRELIMINARY DATA FROM ALBUQUERQUE
      AND OTHER STATIONS.  A FINAL VERSION WITH ADDITIONAL DATA IS
      ISSUED ABOUT 10 MINUTES AFTER THE HOUR.

NMZ501-503-504-510>518-280200-
NORTHWEST PLATEAU/NORTHCENTRAL MOUNTAINS

CITY           SKY/WX    TMP DP  RH WIND       PRES   REMARKS
FARMINGTON     SUNNY     91  30  11 W16       29.98S
SANTA FE       MOSUNNY   86  43  22 W9        30.09S
TAOS           MOSUNNY   81  43  26 W10       30.17S

$$
NMZ402-403-502-505>509-280200-
WESTCENTRAL MOUNTAINS/SOUTHWEST MOUNTAINS

CITY           SKY/WX    TMP DP  RH WIND       PRES   REMARKS
GALLUP         PTSUNNY   84  36  18 W16       30.11S
SILVER CITY      N/A     90  41  18 NW14      30.06S

$$
NMZ407-409-411-412-280200-
SOUTHERN DESERTS

CITY           SKY/WX    TMP DP  RH WIND       PRES   REMARKS
DEMING         MOSUNNY   94  43  17 W13       29.94S
ALAMOGORDO     MOSUNNY   95  48  20 SW12      29.92S
T OR C         PTSUNNY   87  52  29 NW6       29.98S

$$
NMZ519>523-280200-
CENTRAL VALLEYS/CENTRAL HIGHLANDS

CITY           SKY/WX    TMP DP  RH WIND       PRES   REMARKS
ALBUQUERQUE    PTSUNNY   90  45  21 S13       30.01S
DOUBLE EAGLE   PTSUNNY   88  46  23 W3        30.06F
CLINES CORNERS PTSUNNY   74  49  41 S9        30.17S
BELEN          FAIR      88  46  23 S5        30.01S
SOCORRO        NOT AVBL

$$
NMZ524>526-539-540-280200-
SOUTHCENTRAL MOUNTAINS

CITY           SKY/WX    TMP DP  RH WIND       PRES   REMARKS
RUIDOSO          N/A    N/A N/A N/A MISG        N/A

$$
NMZ527>531-280200-
NORTHEAST HIGHLANDS/NORTHEAST PLAINS

CITY           SKY/WX    TMP DP  RH WIND       PRES   REMARKS
LAS VEGAS      PTSUNNY   74  53  48 S16       30.15R
RATON          MOSUNNY   82  53  36 S9        30.04S
CLAYTON        MOSUNNY   86  55  34 SW12      29.96R

$$
NMZ532>537-280200-
EASTCENTRAL PLAINS

CITY           SKY/WX    TMP DP  RH WIND       PRES   REMARKS
TUCUMCARI      PTSUNNY   89  53  29 W6        29.89S
CANNON AFB     NOT AVBL
CLOVIS AIRPORT SUNNY     91  57  31 SE21      29.96R

$$
NMZ028-029-538-280200-
SOUTHEAST PLAINS

CITY           SKY/WX    TMP DP  RH WIND       PRES   REMARKS
ROSWELL        PTSUNNY   99  48  17 S13       29.87S HX  95
ARTESIA        PTSUNNY   97  54  23 S14       29.88S
CARLSBAD       CLOUDY    92  57  30 SE22G29   29.87R
HOBBS          CLOUDY    95  50  21 SE15G21   29.92R


$$



USA.gov is the U.S. government's official web portal to all federal, state and local government web resources and services.